Regional Weather Roundup
Issued by NWS

Home | Current Version | Previous Version | Graphics & Text | Print | Product List | Glossary On
Versions: 1 2 3 4 5 6 7 8 9 10 11 12 13 14 15 16 17 18 19 20 21 22 23 24 25 26 27 28 29 30 31 32 33 34 35 36 37 38 39 40 41 42 43 44 45 46 47 48 49 50
000
ASUS45 KBOU 202307
RWRCO

WEATHER ROUNDUP FOR COLORADO
NATIONAL WEATHER SERVICE DENVER/BOULDER CO
400 PM MST THU NOV 20 2014

NOTE: "FAIR" INDICATES FEW OR NO CLOUDS BELOW 12000 FEET WITH NO
SIGNIFICANT WEATHER AND/OR OBSTRUCTIONS TO VISIBILITY.

COZ001>005-013-030-031-210000-
...NORTHWEST COLORADO...

CITY           SKY/WX    TMP DP  RH WIND       PRES   REMARKS
CRAIG          CLOUDY    40  18  41 E3        30.06S
HAYDEN         CLOUDY    37  16  41 CALM      30.06S
MEEKER         CLOUDY    44  17  33 CALM      30.04S
MOUNT WERNER   NOT AVBL
STEAMBOAT SPGS CLOUDY    34  16  48 CALM      30.06S
WALDEN         MOCLDY    34  14  44 S8        30.04S WCI  27
$$

COZ006>008-011-210000-
...WEST CENTRAL VALLEYS...

CITY           SKY/WX    TMP DP  RH WIND       PRES   REMARKS
GRAND JUNCTION CLOUDY    43  29  57 N7        30.09R
MONTROSE       CLOUDY    41  16  36 N6        30.09S
EAGLE          PTCLDY    37  16  41 CALM      30.09S
RIFLE          CLOUDY    41  18  39 CALM      30.07S
DELTA          CLOUDY    45  14  28 CALM      30.09S
NUCLA          CLOUDY    41  19  42 SE5       30.12F
$$

COZ017>023-064>068-210000-
...SOUTHWEST COLORADO...

CITY           SKY/WX    TMP DP  RH WIND       PRES   REMARKS
DURANGO        CLOUDY    45  15  30 VRB3      30.06S
CORTEZ         MOCLDY    49   9  19 CALM      30.06F
PAGOSA SPRINGS CLOUDY    41  11  29 CALM      30.09S
TELLURIDE      CLOUDY    33  13  44 W10       30.12S WCI  25
WOLF CREEK PAS CLOUDY    21  16  79 SW5       30.14S WCI  15
$$

COZ009-010-012-014-032>034-037-058>063-210000-
...CENTRAL COLORADO...

CITY           SKY/WX    TMP DP  RH WIND       PRES   REMARKS
ASPEN          MOCLDY    35  11  36 NW3       30.06S
BUENA VISTA    CLOUDY    45   6  20 SE12      30.02R
COPPER MTN     MOCLDY    28   0  29 W15       30.12S WCI  17
BERTHOUD PASS  CLOUDY    16  10  79 N7        30.12S WCI   6
COTTONWOOD PAS MOCLDY    39  -4  16 W8        30.06S
GUNNISON       MOCLDY    30  12  47 CALM      30.13S
KREMMLING      CLOUDY    32  12  43 CALM      30.10S
LEADVILLE      CLOUDY    32   5  32 N7        30.06R WCI  26
MONARCH PASS   CLOUDY    23   5  46 W15       30.22S WCI  10
SALIDA         CLOUDY    46   4  18 SW18      30.09R
SUNLIGHT       CLOUDY    28  14  54 CALM      30.13S
WILKERSON PASS CLOUDY    32   9  37 N6        30.12R WCI  26
$$

COZ069>075-210000-
...SAN LUIS VALLEY/SANGRE DE CRISTO MOUNTAINS...

CITY           SKY/WX    TMP DP  RH WIND       PRES   REMARKS
ALAMOSA        CLOUDY    43   7  22 CALM      30.05R
LA VETA PASS   CLOUDY    30   5  34 SW8       30.07S WCI  23
SAGUACHE       MOCLDY    41  10  28 S3        30.07R
$$

COZ035-036-038>040-210000-
...NORTHERN COLORADO FRONT RANGE...

CITY           SKY/WX    TMP DP  RH WIND       PRES   REMARKS
DENVER INTL AP CLOUDY    44  25  47 N6        29.95R
DMNS CITY PARK   N/A     46  22  38 NE3       29.94S
AURORA         MOCLDY    43  26  50 N8        29.96R
FRONT RANGE AP NOT AVBL
ERIE MUNI ARPT MOCLDY    44  24  45 CALM      29.96S
BOULDER MUN AP CLOUDY    45  21  39 CALM      29.96R
CENTENNIAL     MOCLDY    46  24  42 N7        29.95R
BROOMFIELD     MOCLDY    46  23  39 NW8       29.97R
FORT COLLINS   MOCLDY    43  25  49 S3        29.98R
LONGMONT       MOCLDY    45  25  45 N3        29.98R
$$

COZ041-046-047-076>085-087-088-210000-
...PIKES PEAK/PALMER DIVIDE AND SOUTHERN FOOTHILLS...

CITY           SKY/WX    TMP DP  RH WIND       PRES   REMARKS
COLO. SPRINGS  MOCLDY    45  11  25 SE9       29.99R
A. F. ACADEMY  PTCLDY    48   9  20 S12       29.98R
ELLICOTT       MOCLDY    46  14  27 SE10      29.98R
FALCON         NOT AVBL
FORT CARSON    CLOUDY    44  21  40 S8        29.98R
LIMON          MOCLDY    48  11  22 S14       29.98R
MONUMENT HILL  CLOUDY    43   9  24 S13       29.97S
TRINIDAD       PTCLDY    47  21  35 CALM      29.96R
$$

COZ042>045-048>051-090-091-210000-
...NORTHEAST COLORADO...

CITY           SKY/WX    TMP DP  RH WIND       PRES   REMARKS
GREELEY ARPT   PTCLDY    43  21  42 W6        29.97R
AKRON          CLEAR     48  14  25 SE10      29.95S
BURLINGTON     PTCLDY    49  16  26 SE10      29.99R
WRAY           CLEAR     51  17  26 E10       29.98S
STERLING       CLEAR     55  21  26 CALM      29.94S
HOLYOKE        CLEAR     48  18  29 E7        29.97S
FORT MORGAN    CLEAR     52  15  22 CALM      29.96R
$$

COZ086-089-092>099-210000-
...SOUTHEAST COLORADO...

CITY           SKY/WX    TMP DP  RH WIND       PRES   REMARKS
PUEBLO         MOCLDY    47  22  37 SE6       29.96R
LA JUNTA       CLEAR     44  30  57 E8        29.96R
LAMAR          CLEAR     52  26  36 SE7       29.96R
SPRINGFIELD      N/A     41  25  53 SE8       29.99R
$$


USA.gov is the U.S. government's official web portal to all federal, state and local government web resources and services.